TimePST,TemperatureF,Dew PointF,Humidity,Sea Level PressureIn,VisibilityMPH,Wind Direction,Wind SpeedMPH,Gust SpeedMPH,PrecipitationIn,Events,Conditions,WindDirDegrees,DateUTC
12:51 AM,48.9,15.1,26,30.06,10.0,Calm,Calm,-,N/A,,Clear,0,2013-01-22 08:51:00
1:51 AM,48.9,14.0,25,30.06,10.0,Calm,Calm,-,N/A,,Clear,0,2013-01-22 09:51:00
2:51 AM,45.0,16.0,31,30.07,10.0,Calm,Calm,-,N/A,,Clear,0,2013-01-22 10:51:00
3:51 AM,46.9,15.1,28,30.06,10.0,Variable,4.6,-,N/A,,Clear,0,2013-01-22 11:51:00
4:51 AM,45.0,15.1,30,30.06,10.0,Calm,Calm,-,N/A,,Clear,0,2013-01-22 12:51:00
5:51 AM,43.0,16.0,34,30.07,10.0,North,3.5,-,N/A,,Clear,360,2013-01-22 13:51:00
6:51 AM,42.1,18.0,38,30.09,10.0,Calm,Calm,-,N/A,,Clear,0,2013-01-22 14:51:00
7:51 AM,45.0,21.0,39,30.09,10.0,Calm,Calm,-,N/A,,Clear,0,2013-01-22 15:51:00
8:51 AM,53.1,17.1,24,30.10,10.0,Calm,Calm,-,N/A,,Clear,0,2013-01-22 16:51:00
9:51 AM,60.1,19.0,20,30.12,10.0,Calm,Calm,-,N/A,,Clear,0,2013-01-22 17:51:00
10:51 AM,71.1,6.1,8,30.09,10.0,NNE,5.8,-,N/A,,Clear,20,2013-01-22 18:51:00
11:51 AM,75.0,5.0,7,30.05,10.0,Calm,Calm,-,N/A,,Clear,0,2013-01-22 19:51:00
12:51 PM,75.0,3.9,6,30.03,10.0,SSW,4.6,-,N/A,,Clear,210,2013-01-22 20:51:00
1:51 PM,77.0,1.9,5,30.02,10.0,Variable,3.5,-,N/A,,Clear,0,2013-01-22 21:51:00
2:51 PM,75.0,6.1,7,30.02,10.0,Calm,Calm,-,N/A,,Clear,0,2013-01-22 22:51:00
3:51 PM,73.0,12.0,10,30.01,10.0,South,3.5,-,N/A,,Clear,190,2013-01-22 23:51:00
4:51 PM,72.0,8.1,8,30.02,10.0,Calm,Calm,-,N/A,,Clear,0,2013-01-23 00:51:00
5:51 PM,66.9,12.0,12,30.04,10.0,Calm,Calm,-,N/A,,Clear,0,2013-01-23 01:51:00
6:51 PM,63.0,14.0,15,30.06,10.0,Calm,Calm,-,N/A,,Clear,0,2013-01-23 02:51:00
7:51 PM,61.0,10.9,14,30.05,10.0,Calm,Calm,-,N/A,,Clear,0,2013-01-23 03:51:00
8:51 PM,57.0,21.0,25,30.06,10.0,Calm,Calm,-,N/A,,Clear,0,2013-01-23 04:51:00
9:51 PM,55.0,21.9,28,30.08,10.0,Calm,Calm,-,N/A,,Clear,0,2013-01-23 05:51:00
10:51 PM,53.1,24.1,32,30.07,10.0,Calm,Calm,-,N/A,,Clear,0,2013-01-23 06:51:00
11:51 PM,53.1,25.0,34,30.06,10.0,WNW,4.6,-,N/A,,Clear,290,2013-01-23 07:51:00